• Processing (Info)

  • MPEC 2013-K17 : 2013 JA36

    The following Minor Planet Electronic Circular may be linked-to from your own Web pages, but must not otherwise be redistributed electronically.

    A form allowing access to any MPEC is at the bottom of this page.


    Read MPEC 2013-K16 Read MPEC 2013-K18


    M.P.E.C. 2013-K17                                Issued 2013 May 19, 21:05 UT
    
         The Minor Planet Electronic Circulars contain information on unusual
             minor planets and routine data on comets.  They are published
       on behalf of Commission 20 of the International Astronomical Union by the
              Minor Planet Center, Smithsonian Astrophysical Observatory,
                              Cambridge, MA 02138, U.S.A.
    
                 Prepared using the Tamkin Foundation Computer Network
    
                                  MPC@CFA.HARVARD.EDU
                URL https://www.minorplanetcenter.net/    ISSN 1523-6714
    
                                       2013 JA36
    
    Observations:
         K13J36A* C2013 05 15.38233 15 34 54.38 -09 53 20.7          19.2 VuEK017G96
         K13J36A  C2013 05 15.39756 15 34 42.84 -09 54 13.3          19.0 VuEK017G96
         K13J36A  C2013 05 15.40522 15 34 37.06 -09 54 39.5          19.3 VuEK017G96
         K13J36A  C2013 05 16.35067 15 23 36.56 -10 45 00.7          19.3 VuEK017703
         K13J36A  C2013 05 16.35630 15 23 32.89 -10 45 16.6          19.3 VuEK017703
         K13J36A  C2013 05 16.36198 15 23 29.07 -10 45 33.8          19.8 VuEK017703
         K13J36A  C2013 05 16.36765 15 23 25.26 -10 45 49.0          19.3 VuEK017703
         K13J36A  C2013 05 16.37491 15 23 20.61 -10 46 12.3          19.0 VuEK017703
         K13J36A  C2013 05 16.37582 15 23 19.78 -10 46 13.0          19.2 VuEK017703
         K13J36A  C2013 05 16.38178 15 23 15.94 -10 46 32.2          18.9 VuEK017703
         K13J36A  C2013 05 16.38271 15 23 15.25 -10 46 33.6          18.9 VuEK017703
         K13J36A  C2013 05 16.38873 15 23 11.32 -10 46 51.4          18.8 VuEK017703
         K13J36A  C2013 05 16.38962 15 23 10.57 -10 46 52.7          19.8 VuEK017703
         K13J36A  C2013 05 16.39568 15 23 06.62 -10 47 10.9          19.1 VuEK017703
         K13J36A  C2013 05 16.39657 15 23 05.82 -10 47 15.4          19.4 VuEK017703
         K13J36A  C2013 05 17.39212 15 12 56.88 -11 32 19.0          19.4 VuEK017G96
         K13J36A  C2013 05 17.39267 15 12 56.59 -11 32 20.2          19.5 VuEK017G96
         K13J36A  C2013 05 17.39324 15 12 56.23 -11 32 21.6          19.3 VuEK017G96
         K13J36A  C2013 05 17.39378 15 12 55.94 -11 32 23.1          19.4 VuEK017G96
         K13J36A  C2013 05 18.25939 15 05 07.44 -12 06 20.5          19.8 VuEK017G96
         K13J36A  C2013 05 18.26613 15 05 03.91 -12 06 35.4          19.7 VuEK017G96
         K13J36A KC2013 05 18.26892 15 05 01.98 -12 06 44.3          19.5  qEK017H36
         K13J36A  C2013 05 18.27292 15 05 00.38 -12 06 49.9          19.6 VuEK017G96
         K13J36A KC2013 05 18.27685 15 04 57.91 -12 07 01.5          19.6  qEK017H36
         K13J36A  C2013 05 18.27972 15 04 56.78 -12 07 04.8          19.7 VuEK017G96
         K13J36A KC2013 05 18.28478 15 04 53.72 -12 07 18.1          19.7  qEK017H36
         K13J36A KC2013 05 19.16778814 57 46.53 -12 37 36.6          20.0 VuEK017H21
         K13J36A KC2013 05 19.17175914 57 44.67 -12 37 43.8                uEK017H21
         K13J36A KC2013 05 19.17578814 57 42.79 -12 37 51.7          19.9 VuEK017H21
         K13J36A |C2013 05 19.21878 14 57 22.25 -12 38 43.6          19.8 VuEK017807
         K13J36A |C2013 05 19.22125 14 57 21.10 -12 38 48.2          20.0 VuEK017807
         K13J36A |C2013 05 19.22373 14 57 19.94 -12 38 52.7          20.0 VuEK017807
         K13J36A |C2013 05 19.22622 14 57 18.78 -12 38 57.7          20.0 VuEK017807
         K13J36A |C2013 05 19.22871 14 57 17.63 -12 39 02.5          20.0 VuEK017807
         K13J36A QC2013 05 19.43249 14 55 47.75 -12 45 26.3                qEK017E12
         K13J36A QC2013 05 19.47786 14 55 27.25 -12 46 51.2          20.0 VqEK017E12
    
    Observer details:
    703 Catalina Sky Survey.  Observer J. A. Johnson.  Measurers A. Boattini,
        E. J. Christensen, A. R. Gibbs, A. D. Grauer, R. E. Hill, J. A. Johnson,
        R. A. Kowalski, S. M. Larson, R. H. McNaught, F. C. Shelly.  0.68-m
        Schmidt + CCD.
    807 Cerro Tololo.  Observers T. Linder, R. Holmes.  0.41-m f/11
        Ritchey-Chretien + CCD.
    E12 Siding Spring Survey.  Observer R. H. McNaught.  Measurers A. Boattini,
        E. J. Christensen, A. R. Gibbs, A. D. Grauer, R. E. Hill, R. A. Kowalski,
        S. M. Larson, R. H. McNaught.  0.5-m Uppsala Schmidt + CCD.
    G96 Mt. Lemmon Survey.  Observers E. J. Christensen, j. Christensen.
        Measurers A. Boattini, E. J. Christensen, A. R. Gibbs, A. D. Grauer,
        R. E. Hill, J. A. Johnson, R. A. Kowalski, S. M. Larson, R. H. McNaught,
        F. C. Shelly.  1.5-m reflector + CCD.
    H21 Astronomical Research Observatory, Westfield.  Observer R. Holmes.
        Measurers L. Buzzi, S. Foglia, T. Vorobjov, H. Devore, A. Kostin.  0.81-m
        f/4.0 astrograph + CCD.
    H36 Sandlot Observatory, Scranton.  Observer G. Hug.  0.56-m reflector + CCD.
    
    Orbital elements:
    2013 JA36                                                Earth MOID = 0.0902 AU
    Epoch 2013 Apr. 18.0 TT = JDT 2456400.5                 MPC
    M   4.40611              (2000.0)            P               Q
    n   0.21261081     Peri.   31.50876     +0.15639609     -0.80730973
    a   2.7802199      Node    56.27134     +0.70248381     -0.31406315
    e   0.9509473      Incl.   43.17211     +0.69430308     +0.49961519
    P   4.64           H   21.1           G   0.15           U   9
    Residuals in seconds of arc
    130515 G96  0.3+  0.1+    130516 703 (1.7-  1.5+)   130518 G96  0.1-  0.5+
    130515 G96  0.1+  0.1-    130516 703  0.7-  0.9+    130518 H36  0.2-  0.3+
    130515 G96  0.2+  0.1-    130516 703 (3.8-  1.0-)   130519 H21  0.0   0.3-
    130516 703  0.8-  0.8-    130517 G96  0.0   0.1-    130519 H21  0.1-  0.2+
    130516 703  0.5+  0.1-    130517 G96  0.4+  0.1+    130519 H21  0.0   0.1+
    130516 703  0.0   0.6-    130517 G96  0.0   0.1+    130519 807  0.1+  0.2+
    130516 703  0.4-  0.9+    130517 G96  0.4+  0.0     130519 807  0.1+  0.3+
    130516 703 (2.3+  1.2-)   130518 G96  0.1+  0.0     130519 807  0.0   0.6+
    130516 703  1.1-  0.8+    130518 G96  0.1+  0.0     130519 807  0.0   0.3+
    130516 703  0.7+  0.9-    130518 H36  0.5-  0.7-    130519 807  0.1+  0.2+
    130516 703  0.3-  0.4+    130518 G96  0.5+  0.4+    130519 E12  0.1+  0.2-
    130516 703  0.6+  0.2+    130518 H36  0.5+  0.5-    130519 E12  0.2-  0.1-
    
    Ephemeris:
    2013 JA36                a,e,i = 2.78, 0.95, 43                  q = 0.1364
    Date    TT    R. A. (2000) Decl.     Delta      r     Elong.  Phase     V
    2013 04 19    23 26 25.5 +19 34 25   0.3987  0.7152    35.0   126.4    23.7
    ...
    2013 05 04    20 02 53.7 +12 23 36   0.1636  1.0390    96.3    74.7    19.9
    ...
    2013 05 12    16 28 04.5 -05 32 05   0.1924  1.1910   158.3    18.3    18.8
    ...
    2013 05 18    15 07 23.0 -11 56 15   0.2905  1.2981   169.3     8.3    19.6
    2013 05 19    14 59 04.3 -12 31 45   0.3096  1.3154   167.2     9.8    19.8
    2013 05 20    14 51 43.4 -13 02 30   0.3291  1.3326   165.1    11.3    20.0
    ...
    2013 05 26    14 21 43.7 -15 03 58   0.4537  1.4330   153.4    18.5    21.1
    ...
    2013 06 03    14 02 21.8 -16 27 39   0.6327  1.5605   141.6    23.8    22.2
    ...
    2013 06 18    13 51 07.2 -17 57 40   0.9919  1.7826   125.2    27.8    23.6
    
    A. U. Tomatic                (C) Copyright 2013 MPC           M.P.E.C. 2013-K17
    

    Read MPEC 2013-K16 Read MPEC 2013-K18


    MPEC number:

    Enter an MPEC number in one of the following forms:

    • 1997-B01 (the full form)
    • J97B01 (the packed version of the full form)
    • B01 (the abbreviated form)